Regional Weather Roundup
Issued by NWS

Home | Current Version | Previous Version | Text Only | Print | Product List | Glossary On
Versions: 1 2 3 4 5 6 7 8 9 10 11 12 13 14 15 16 17 18 19 20 21 22 23 24 25 26 27 28 29 30 31 32 33 34 35 36 37 38 39 40 41 42 43 44 45 46 47 48 49 50
000
ASUS44 KFWD 280410
RWRTX
NORTH TEXAS HOURLY WEATHER ROUNDUP
NATIONAL WEATHER SERVICE FORT WORTH TX
1100 PM CDT THU JUL 27 2017

NOTE: "FAIR" INDICATES FEW OR NO CLOUDS BELOW 12,000 FEET WITH NO
SIGNIFICANT WEATHER AND/OR OBSTRUCTIONS TO VISIBILITY.

TXZ118-119-280500-
DALLAS/FORT WORTH METROPLEX

CITY           SKY/WX    TMP DP  RH WIND       PRES   REMARKS
DFW AIRPORT    MOCLDY    88  68  51 SE6       29.90R HX  91
DALLAS LOVE    MOCLDY    91  67  44 S12       29.91R HX  94
FTW MEACHAM    PTCLDY    88  68  51 S9        29.90R HX  91
DAL-EXECUTIVE  PTCLDY    86  69  56 S6        29.91R HX  90
FTW-ALLIANCE   CLOUDY    84  67  56 S6        29.90R
FTW-NAS-JRB    MOCLDY    91  64  40 S9        29.91R HX  92
FTW-SPINKS     PTCLDY    84  65  53 S6        29.92S
ARLINGTON      MOCLDY    85  69  58 SE6       29.91R
GRAND PRAIRIE  MOCLDY    87  65  47 SE5       29.92R
ADDISON        PTCLDY    89  68  49 SE8       29.93R HX  92
MESQUITE       CLOUDY    82  69  66 CALM      29.92R
LANCASTER      MOCLDY    83  70  66 S5        29.92R
$$

TXZ091>094-102>105-117-120-121-131>134-280500-
NORTH CENTRAL TEXAS

CITY           SKY/WX    TMP DP  RH WIND       PRES   REMARKS
SHRMAN/DENISON CLEAR     85  69  58 S10       29.92S
GAINESVILLE    PTCLDY    80  72  76 SE3       29.93S
BOWIE          PTCLDY    82  69  64 SE5       29.93R
BRIDGEPORT     CLEAR     83  65  54 S7        29.93R
DECATUR        CLEAR     87  67  50 S10       29.93R HX  90
DENTON         CLEAR     83  71  67 SE6       29.90R
MCKINNEY       PTCLDY    82  73  74 S7        29.92R
BONHAM         CLEAR     82  70  65 S8        29.92R
GREENVILLE     PTCLDY    84  72  65 S5        29.92S
ROCKWALL       MOCLDY    84  72  67 SE5       29.92R
TERRELL        CLOUDY    84  71  65 SE5       29.92R
WAXAHACHIE     PTCLDY    83  68  59 SE3       29.94R
CLEBURNE       MOCLDY    84  66  54 S6        29.94R
GRANBURY       PTCLDY    85  66  52 CALM      29.92S
$$

TXZ083>090-098>101-113>116-127>130-139>142-154-155-280500-
WESTERN NORTH TEXAS

CITY           SKY/WX    TMP DP  RH WIND       PRES   REMARKS
WICHITA FALLS  CLEAR     83  67  58 S9        29.89R
WF-KICKAPOO    PTCLDY    85  68  56 SE9       29.91S
VERNON         CLOUDY    87  59  39 CALM      29.91R
ABILENE        CLOUDY    83  59  44 SE8       29.96R
ABILENE-DYESS  PTCLDY    83  60  46 S6        29.95R
GRAHAM         CLEAR     84  62  46 SE5       29.91R
BRECKENRIDGE   PTCLDY    87  60  40 SE7       29.93R
CISCO          MOCLDY    82  63  51 S7        29.96S
EASTLAND       PTCLDY    77  65  66 CALM      29.94S
RANGER         PTCLDY    83  61  46 S6        29.95S
MINERAL WELLS  CLOUDY    84  64  50 SE7       29.90R
STEPHENVILLE   PTCLDY    82  63  51 CALM      29.97S
COMANCHE       PTCLDY    81  62  51 S6        29.95S
BROWNWOOD      PTCLDY    82  63  51 SE3       29.96R
COLEMAN        PTCLDY    84  59  42 S5        29.97R
$$

TXZ143>147-156>162-174-175-280500-
CENTRAL TEXAS

CITY           SKY/WX    TMP DP  RH WIND       PRES   REMARKS
WACO           CLEAR     89  70  53 S12       29.91R HX  94
WACO-TSTC      CLEAR     88  68  51 S6        29.92R HX  91
WACO-MCGREGOR  CLEAR     88  70  55 S8        29.92R HX  93
HILLSBORO      MOCLDY    88  68  50 SE9       29.92R HX  92
CORSICANA      PTCLDY    85  71  63 S7        29.93R HX  90
MEXIA          CLOUDY    82  69  65 S13       29.92S
HEARNE         CLEAR     83  71  66 SE5       29.94R
CAMERON        CLEAR     86  70  58 S8        29.92S HX  91
TEMPLE         CLEAR     88  70  55 S12       29.93R HX  93
KILLEEN        CLEAR     86  64  48 S8        29.94R
KILLEEN-SKYLRK CLEAR     87  70  56 S10       29.94R HX  92
FORT HOOD      CLEAR    N/A N/A N/A S9        29.91R
HAMILTON       CLOUDY    82  64  52 S7        29.96R
LAMPASAS       CLEAR     86  66  51 S3        29.95R
$$

TXZ095>097-106>112-122>126-135>138-148>153-164>167-280500-
EAST TEXAS

CITY           SKY/WX    TMP DP  RH WIND       PRES   REMARKS
PARIS          PTCLDY    80  73  79 S8        29.92R
SULPHUR SPRNGS CLEAR     85  71  62 S8        29.95R HX  91
MOUNT PLEASANT PTCLDY    82  72  71 CALM      29.94R
GILMER         CLOUDY    84  74  71 S5        29.94R HX  90
MINEOLA        PTCLDY    86  73  66 S6        29.93R HX  93
TYLER          PTCLDY    84  74  71 S7        29.94R HX  91
LONGVIEW       PTCLDY    83  76  79 S6        29.93R HX  91
MARSHALL         N/A     77  73  85 CALM      29.96S
ATHENS         CLEAR     79  70  73 CALM      29.93R
PALESTINE      MOCLDY    84  73  68 SE5       29.95R HX  91
JACKSONVILLE   CLOUDY    81  74  80 S6        29.97R
HENDERSON      CLOUDY    78  74  88 CALM      29.96R
CENTER         CLOUDY    82  80  95 CALM      29.96R HX  92
NACOGDOCHES    CLOUDY    77  73  88 CALM      29.93R
LUFKIN         CLEAR     81  74  79 S5        29.94R
$$

SUPPLEMENTAL OBSERVATIONS (NWS FORT WORTH AREA)

CITY           SKY/WX    TMP DP  RH WIND       PRES   REMARKS
CADDO GRASSLND   N/A     84  70  61 S9          N/A
LBJ GRASSLAND    N/A     86  66  51 SE7         N/A
POSSUM KINGDOM   N/A     86  61  42 SE2         N/A
GRANBURY         N/A     84  66  54 SE2         N/A
MCGREGOR         N/A     88  68  51 S10G18      N/A  HX  91
TEMPLE           N/A     88  70  55 S6          N/A  HX  92
$$

SUPPLEMENTAL OBSERVATIONS (NWS NORMAN AREA)

CITY           SKY/WX    TMP DP  RH WIND       PRES   REMARKS
GOODLETT         N/A     82  66  57 NE8       29.95R
ODELL            N/A     82  69  64 NE12      29.95R
CROWELL          N/A     88  61  39 S8        29.93R
KNOX CITY        N/A     87  57  35 SE13      29.93S
SEYMOUR          N/A     89  58  35 SE10      29.92R
MILLERS CREEK    N/A     88  64  45 SE10        N/A
$$

SUPPLEMENTAL OBSERVATIONS (NWS SAN ANGELO AREA)

CITY           SKY/WX    TMP DP  RH WIND       PRES   REMARKS
WEINERT          N/A     86  60  41 S9        29.93S
HASKELL          N/A     87  56  35 SE7       29.94S
THROCKMORTON     N/A     84  63  49 S7        29.94R
STAMFORD         N/A     84  60  44 SE7       29.95S
CLYDE            N/A     84  60  45 S7        29.99R
HAMBY            N/A     88  57  35 SE6         N/A
$$

SUPPLEMENTAL OBSERVATIONS (NWS SHREVEPORT AREA)

CITY           SKY/WX    TMP DP  RH WIND       PRES   REMARKS
TEXARKANA        N/A     79  75  89 CALM        N/A
LINDEN           N/A     82  72  69 S2          N/A
LUFKIN           N/A     81  73  78 MISG        N/A
$$

SUPPLEMENTAL OBSERVATIONS ARE A COLLECTION OF AUTOMATED INSTRUMENTS
THAT ARE MAINTAINED BY A VARIETY OF FEDERAL AND STATE AGENCIES.
CERTAIN ELEMENTS...SUCH AS HUMIDITY VALUES AND SUSTAINED WIND
SPEEDS...MAY BE APPROXIMATED.





USA.gov is the U.S. government's official web portal to all federal, state and local government web resources and services.